Location: ??
(34.9170°N, 135.5016°E)
Time: 23:33:36
(UTC+00:00)

RS-15 - Pass Details

Date: 22 April 2021
Orbit: 1888 x 2157 km, 64.8° (Epoch: 12 May)

Event Time Altitude Azimuth Distance (km) Brightness Sun altitude
Rises 18:19:02 0° 330° (NNW) 5,556 10.5 -22.6°
Reaches altitude 10° 18:22:23 10° 331° (NNW) 4,582 10.0 -22.0°
Maximum altitude 18:34:32 85° 62° (ENE) 2,153 8.2 -19.9°
Drops below altitude 10° 18:46:53 10° 151° (SSE) 4,660 10.0 -17.8°
Sets 18:50:19 0° 152° (SSE) 5,655 10.4 -17.2°
